JO-97
1 43803U 18099AX  25006.15685533  .00020229  00000-0  10782-2 0  9999
2 43803  97.4923  67.0202 0007705 332.9090  27.1739 15.15193154333346
Suomi 100
1 43804U 18099AY  25006.16194835  .00018085  00000-0  10084-2 0  9993
2 43804  97.4992  66.6630 0012984 329.7295  30.3184 15.13561727333308
ISAT
1 43879U 18111D   25006.49407192  .00030479  00000-0  13691-2 0  9997
2 43879  97.6054 278.4154 0012148  27.8725 332.3159 15.21036623330205
UWE-4
1 43880U 18111E   25006.48494180  .00024664  00000-0  11850-2 0  9995
2 43880  97.5990 277.7590 0015684  35.0025 325.2237 15.18714613330186
Sparrow
1 43881U 18111F   25006.51248054  .00030552  00000-0  13409-2 0  9992
2 43881  97.6169 280.8024 0010762  62.1435 298.0890 15.21844466330288
Prox-1
1 44339U 19036A   25006.36355767  .00017731  00000-0  25590-2 0  9999
2 44339  23.9995 350.8962 0008131 123.6389 236.4884 14.74649624295187
SONATE
1 44400U 19038Q   25006.55415431  .00067196  00000-0  10503-2 0  9994
2 44400  97.7123  18.3191 0013684  93.6427 266.6390 15.53457445305428
Taurus 1
1 44530U 19059C   25006.81592090  .00014535  00000-0  29095-2 0  9992
2 44530  98.5891 139.5368 0010202 150.6920 209.4854 14.61872515281442
Duchifat 3
1 44854U 19089C   25006.75351919  .00042436  00000-0  13882-2 0  9998
2 44854  36.9482 241.3879 0011360 348.6058  11.4435 15.30705749279241
TO-108
1 44881U 19093C   25006.76100415  .00002663  00000-0  31818-3 0  9995
2 44881  97.8100  85.5747 0014472  21.7185 338.4640 14.84961950273243
FloripaSat 1
1 44885U 19093G   25006.81720984  .00010714  00000-0  97465-3 0  9990
2 44885  97.8267  94.3964 0011341   3.9733 356.1575 14.95337412273744
RS-44
1 44909U 19096E   25006.38170316  .00000033  00000-0  93722-4 0  9996
2 44909  82.5233 329.7484 0216513 296.3085  61.5920 12.79737674234969
UPMSat 2
1 46276U 20061E   25006.55892432  .00048022  00000-0  88168-3 0  9995
2 46276  97.2689  78.0139 0001969 102.4252 257.7219 15.49109368241485
AmicalSat
1 46287U 20061R   25006.47171446  .01551508  16977-2  18331-2 0  9998
2 46287  97.2970  84.9563 0004939 289.0900  70.9848 16.08992943241162
SALSAT
1 46495U 20068K   25006.80027489  .00015022  00000-0  72181-3 0  9997
2 46495  97.8435 338.3378 0011890 343.7908  16.2943 15.18874793235158
CubeSX-Sirius-HSE
1 47951U 21022V   25006.82177309  .00072682  00000-0  14520-2 0  9992
2 47951  97.4381 272.9214 0011549 117.2599 242.9828 15.46491200209795
CubeSX-HSE
1 47952U 21022W   25006.68178181  .00069138  00000-0  13689-2 0  9993
2 47952  97.4374 272.9364 0011622 117.2082 243.0354 15.46765757209789
KSU-Cubesat
1 47954U 21022Y   25006.68895755  .00137181  00000-0  17427-2 0  9996
2 47954  97.4378 276.0819 0010883 105.5225 254.7234 15.58871784209701
GRBAlpha
1 47959U 21022AD  25006.77020819  .00071437  00000-0  14165-2 0  9999
2 47959  97.4378 273.1937 0011482 116.9558 243.2865 15.46714994208625
Orbicraft-Zorkiy
1 47960U 21022AE  25006.79726084  .00107885  00000-0  16397-2 0  9996
2 47960  97.4378 275.7607 0010930 109.2851 250.9586 15.54117228209450
TUBIN
1 48900U 21059X   25006.79112308  .00042587  00000-0  91496-3 0  9990
2 48900  97.6627 165.6255 0005449  80.1038 280.0824 15.44549640196183
LEDSAT
1 49069U 21073D   25006.78347215  .00046172  00000-0  11286-2 0  9991
2 49069  97.4116  84.2690 0013181 279.2538  80.7217 15.40586664187610
CUTE
1 49263U 21088D   25006.73071910  .00052800  00000-0  14361-2 0  9996
2 49263  97.4718  79.2950 0010878  83.1633 277.0849 15.37302746180703
TeikyoSat 4
1 49396U 21102B   25006.58251747  .00004882  00000-0  33443-3 0  9991
2 49396  97.4342  50.4870 0011463 306.3664  53.6505 15.06455506173359
Z-Sat
1 49399U 21102E   25006.75842835  .00007806  00000-0  45480-3 0  9990
2 49399  97.4044  52.9093 0017326 277.8111  82.1153 15.12143145173714
KOSEN 1
1 49402U 21102H   25006.68884842  .00013379  00000-0  68131-3 0  9991
2 49402  97.3961  55.2196 0015521 255.6145 104.3366 15.16814953173935
HO-113
1 50466U 21131B   25006.78245636  .00001578  00000-0  51040-3 0  9997
2 50466  98.5187  96.9105 0003436 227.0927 132.9973 14.40429774159300
IRIS-A
1 51044U 22002BN  25006.65891096  .00073380  00000-0  12186-2 0  9998
2 51044  97.3543  80.5991 0004555  29.2410 330.9097 15.51837721165739
Foresail-1
1 52766U 22057AL  25006.36179631  .00068293  00000-0  11367-2 0  9999
2 52766  97.5974 145.4683 0005665 123.1009 237.0787 15.51788140145721
SNUGLITE 2
1 52899U 22065F   25006.38408670  .00003640  00000-0  72875-3 0  9992
2 52899  98.1436 150.1689 0006722 232.1205 127.9389 14.62391449133940
IO-117
1 53106U 22080B   24357.45145358 -.00000003  00000-0  00000-0 0  9997
2 53106  70.1377 127.1156 0008284  64.6124 295.5392  6.42557665 57362
FO-118
1 54684U 22167C   25006.79009463  .00184717  00000-0  18574-2 0  9991
2 54684  97.6122 166.6997 0002656 147.7477 212.3945 15.64849353115692
SO-120
1 56992U 23084BU  25006.80597654  .00261915  00000-0  20923-2 0  9997
2 56992  97.5323 139.0518 0006875 338.3952  21.7018 15.70298182 87577
MRC-100
1 56993U 23084BV  25004.25947094  .12600048  25824-5  83387-3 0  9999
2 56993  97.5134 139.2748 0011223 298.8771  61.1402 16.40581581 87376
UmKA 1 (RS40S)
1 57172U 23091G   25006.80649334  .00010832  00000-0  62651-3 0  9994
2 57172  97.5841  63.1038 0016309 140.1734 220.0697 15.12329336 84214
CubeBel-2 (EU11S)
1 57175U 23091K   25006.76260419  .00016357  00000-0  88275-3 0  9993
2 57175  97.5840  63.4576 0013995 150.4503 209.7522 15.14739356 84234
VERONIKA
1 58261U 23174F   25006.69256146  .00062019  00000-0  15631-2 0  9997
2 58261  97.4363  87.6415 0007992 241.3791 118.6651 15.39634396 64806
KAFASAT
1 58317U 23174BP  25006.52144430  .00123776  00000-0  19943-2 0  9991
2 58317  97.4268  89.8382 0006238 217.5210 142.5608 15.52482922 64957
ENSO
1 58470U 23185J   25006.78377077  .00044867  00000-0  11867-2 0  9996
2 58470  97.3986  78.9501 0008484 276.8880  83.1399 15.38231750 61264
EIRSAT-1
1 58472U 23185L   25006.76053465  .00053420  00000-0  12793-2 0  9992
2 58472  97.3977  79.4001 0007989 276.6053  83.4284 15.41228919 61292
SONATE-2
1 59112U 24043Q   25006.35285552  .00025991  00000-0  95061-3 0  9999
2 59112  97.4953 135.5305 0011907 304.8402  55.1717 15.27980849 46726
MO-122
1 60209U 24125G   25006.59149620  .00027091  00000-0  97999-3 0  9995
2 60209  97.2970 220.5811 0022053 332.1900  27.8159 15.28166495 28371
GRBBeta
1 60237U 24128C   25006.83829804  .00008150  00000-0  65447-3 0  9993
2 60237  61.9925 254.6825 0034400  21.0559 339.1938 15.00291614 27113
Curium One
1 60242U 24128H   25006.12064934  .00013909  00000-0  10785-2 0  9998
2 60242  61.9827 257.0979 0034219  14.2690 345.9358 15.01202961 27013
ROBUSTA-3A
1 60243U 24128J   25006.81605700  .00013335  00000-0  10431-2 0  9998
2 60243  61.9890 255.0583 0032374  11.9806 348.2046 15.00944392 27117
CatSat
1 60246U 24125J   25006.55621789  .00019982  00000-0  76335-3 0  9994
2 60246  97.2763 221.1441 0045321 282.0437  77.5724 15.25679470 26466
CySat-1
1 61501U 98067WZ  25006.21640974  .02563165  15813-1  20265-2 0  9993
2 61501  51.6173  16.3921 0007871  59.3635 300.8157 16.17768306 14143
AO-123
1 61781U 24199AY  25006.81842434  .00015187  00000-0  61407-3 0  9998
2 61781  97.3776 236.6300 0018298  26.6057 333.6116 15.24665570 53426
